Terug naar catalogus

ONEWEB-0508

ActiefCommunicatiePO
NORAD 54126·PAYLOAD·🇬🇧 United Kingdom

Gelanceerd Oct 22, 2022 vanaf Satish Dhawan Space Centre

Loading…

Volgende Passages (komende 24 uur)

TLE

VersSource: CelesTrak SupGP

Epoch: Sep 15, 2026, 00:58 UTC

1 54126C 22138P   26258.04077963  .00000583  00000+0  14592-2 0  2589
2 54126  87.9103 287.0735 0002007  83.9592 299.3156 13.19723495    15

Volg ONEWEB-0508 in realtime met AllMySat

Download on the App Store